Location: Ettringen
(48.1054°N, 10.6545°E)
Time: 21:47:25
(UTC+00:00)

CZ-2D R/B - Pass Details

Date: 18 November 2025
Orbit: 404 x 412 km, 97.4° (Epoch: 10 December)

Event Time Altitude Azimuth Distance (km) Brightness Sun altitude
Rises 16:22:13 0° 151° (SSE) 2,330 6.4 -7.9°
Reaches altitude 10° 16:24:15 10° 144° (SE) 1,471 5.3 -8.2°
Maximum altitude 16:27:13 41° 72° (ENE) 603 3.1 -8.6°
Drops below altitude 10° 16:30:13 10° 1° (N) 1,478 5.3 -9.1°
Sets 16:32:16 0° 354° (N) 2,343 6.4 -9.4°
